| time (UTC) | temp F | wind direction | speed MPH | gust MPH | rain 1hr in | rain 24hr in | rain mn in | humidity % | barometer mb |
| 20260906143741 | 93 | 147 | 6.0 | 8.0 | 0.00 | 0.00 | 0.00 | 70 | 1004.3 |
| 20260906143239 | 94 | 137 | 6.0 | 9.0 | 0.00 | 0.00 | 0.00 | 69 | 1004.4 |
| 20260906142738 | 94 | 138 | 3.0 | 9.0 | 0.00 | 0.00 | 0.00 | 69 | 1004.2 |
| 20260906142233 | 94 | 130 | 7.0 | 10.0 | 0.00 | 0.00 | 0.00 | 68 | 1004.4 |
| 20260906141732 | 94 | 133 | 0.0 | 8.0 | 0.00 | 0.00 | 0.00 | 67 | 1004.3 |
| 20260906141227 | 94 | 137 | 6.0 | 8.0 | 0.00 | 0.00 | 0.00 | 67 | 1004.1 |
| 20260906140727 | 94 | 150 | 5.0 | 9.0 | 0.00 | 0.00 | 0.00 | 68 | 1004.1 |
| 20260906140221 | 94 | 141 | 7.0 | 9.0 | 0.00 | 0.00 | 0.00 | 69 | 1004.1 |
| 20260906135718 | 94 | 135 | 5.0 | 9.0 | 0.00 | 0.00 | 0.00 | 70 | 1004.1 |
| 20260906135214 | 94 | 145 | 3.0 | 12.0 | 0.00 | 0.00 | 0.00 | 69 | 1004.1 |
| 20260906134710 | 94 | 153 | 8.0 | 9.0 | 0.00 | 0.00 | 0.00 | 69 | 1004.2 |
| 20260906134205 | 94 | 168 | 7.0 | 9.0 | 0.00 | 0.00 | 0.00 | 69 | 1004.2 |
| 20260906133700 | 94 | 142 | 6.0 | 10.0 | 0.00 | 0.00 | 0.00 | 69 | 1004.3 |
| 20260906133155 | 94 | 172 | 5.0 | 11.0 | 0.00 | 0.00 | 0.00 | 69 | 1004.3 |
| 20260906132651 | 94 | 138 | 3.0 | 9.0 | 0.00 | 0.00 | 0.00 | 69 | 1004.1 |
| 20260906132147 | 94 | 135 | 6.0 | 11.0 | 0.00 | 0.00 | 0.00 | 67 | 1004.1 |
| 20260906131642 | 95 | 153 | 9.0 | 11.0 | 0.00 | 0.00 | 0.00 | 67 | 1004.1 |
| 20260906131137 | 94 | 130 | 9.0 | 11.0 | 0.00 | 0.00 | 0.00 | 67 | 1004.1 |
| 20260906130632 | 95 | 157 | 7.0 | 11.0 | 0.00 | 0.00 | 0.00 | 67 | 1004.0 |
| 20260906130127 | 95 | 170 | 3.0 | 10.0 | 0.00 | 0.00 | 0.00 | 69 | 1004.1 |
| 20260906125624 | 95 | 146 | 8.0 | 11.0 | 0.00 | 0.00 | 0.00 | 67 | 1004.0 |
| 20260906125124 | 95 | 159 | 5.0 | 11.0 | 0.00 | 0.00 | 0.00 | 68 | 1004.0 |
| 20260906124619 | 95 | 169 | 7.0 | 10.0 | 0.00 | 0.00 | 0.00 | 70 | 1003.9 |
| 20260906124114 | 95 | 144 | 4.0 | 12.0 | 0.00 | 0.00 | 0.00 | 68 | 1003.9 |
| 20260906123614 | 95 | 146 | 8.0 | 13.0 | 0.00 | 0.00 | 0.00 | 67 | 1003.9 |
| 20260906123109 | 95 | 130 | 6.0 | 12.0 | 0.00 | 0.00 | 0.00 | 68 | 1004.1 |
| 20260906122608 | 95 | 119 | 9.0 | 11.0 | 0.00 | 0.00 | 0.00 | 67 | 1003.8 |
| 20260906122104 | 95 | 150 | 8.0 | 11.0 | 0.00 | 0.00 | 0.00 | 68 | 1003.9 |
| 20260906121600 | 95 | 127 | 5.0 | 13.0 | 0.00 | 0.00 | 0.00 | 67 | 1004.0 |
| 20260906121056 | 95 | 177 | 9.0 | 11.0 | 0.00 | 0.00 | 0.00 | 68 | 1004.2 |
| 20260906120551 | 95 | 147 | 8.0 | 12.0 | 0.00 | 0.00 | 0.00 | 67 | 1004.0 |
| 20260906120049 | 95 | 130 | 6.0 | 11.0 | 0.00 | 0.00 | 0.00 | 66 | 1004.1 |
| 20260906115548 | 95 | 157 | 7.0 | 10.0 | 0.00 | 0.00 | 0.00 | 66 | 1004.0 |
| 20260906115044 | 95 | 163 | 6.0 | 15.0 | 0.00 | 0.00 | 0.00 | 66 | 1004.2 |
| 20260906114544 | 95 | 152 | 8.0 | 15.0 | 0.00 | 0.00 | 0.00 | 66 | 1004.3 |
| 20260906114039 | 96 | 143 | 3.0 | 11.0 | 0.00 | 0.00 | 0.00 | 65 | 1004.2 |
| 20260906113538 | 95 | 175 | 9.0 | 13.0 | 0.00 | 0.00 | 0.00 | 66 | 1004.3 |
| 20260906113033 | 96 | 147 | 3.0 | 11.0 | 0.00 | 0.00 | 0.00 | 66 | 1004.3 |
| 20260906112528 | 95 | 134 | 7.0 | 13.0 | 0.00 | 0.00 | 0.00 | 65 | 1004.4 |
| 20260906112025 | 97 | 147 | 6.0 | 10.0 | 0.00 | 0.00 | 0.00 | 63 | 1004.3 |
| 20260906111524 | 95 | 137 | 4.0 | 11.0 | 0.00 | 0.00 | 0.00 | 65 | 1004.4 |
| 20260906111020 | 96 | 134 | 7.0 | 11.0 | 0.00 | 0.00 | 0.00 | 64 | 1004.4 |
| 20260906110520 | 96 | 155 | 11.0 | 12.0 | 0.00 | 0.00 | 0.00 | 64 | 1004.7 |
| 20260906110019 | 97 | 163 | 3.0 | 11.0 | 0.00 | 0.00 | 0.00 | 64 | 1004.6 |
| 20260906105514 | 95 | 146 | 7.0 | 15.0 | 0.00 | 0.00 | 0.00 | 65 | 1004.5 |
| 20260906105010 | 96 | 151 | 9.0 | 13.0 | 0.00 | 0.00 | 0.00 | 63 | 1004.5 |
| 20260906104508 | 96 | 103 | 2.0 | 15.0 | 0.00 | 0.00 | 0.00 | 62 | 1004.6 |
| 20260906104003 | 96 | 126 | 3.0 | 12.0 | 0.00 | 0.00 | 0.00 | 64 | 1004.9 |
| 20260906103501 | 97 | 155 | 6.0 | 10.0 | 0.00 | 0.00 | 0.00 | 63 | 1004.7 |
| 20260906102956 | 96 | 125 | 3.0 | 13.0 | 0.00 | 0.00 | 0.00 | 64 | 1004.5 |
| 20260906102451 | 97 | 140 | 5.0 | 13.0 | 0.00 | 0.00 | 0.00 | 61 | 1004.7 |
| 20260906101951 | 98 | 128 | 7.0 | 9.0 | 0.00 | 0.00 | 0.00 | 61 | 1004.7 |
| 20260906101446 | 97 | 182 | 4.0 | 10.0 | 0.00 | 0.00 | 0.00 | 61 | 1004.7 |
| 20260906100946 | 97 | 159 | 3.0 | 11.0 | 0.00 | 0.00 | 0.00 | 61 | 1004.8 |
| 20260906100441 | 97 | 127 | 5.0 | 10.0 | 0.00 | 0.00 | 0.00 | 63 | 1004.6 |
| 20260906095936 | 96 | 132 | 7.0 | 12.0 | 0.00 | 0.00 | 0.00 | 63 | 1004.8 |
| 20260906095431 | 98 | 148 | 5.0 | 10.0 | 0.00 | 0.00 | 0.00 | 62 | 1004.8 |
| 20260906094926 | 97 | 139 | 6.0 | 10.0 | 0.00 | 0.00 | 0.00 | 62 | 1004.9 |
| 20260906094420 | 98 | 160 | 6.0 | 10.0 | 0.00 | 0.00 | 0.00 | 61 | 1004.8 |
| 20260906093916 | 98 | 174 | 5.0 | 11.0 | 0.00 | 0.00 | 0.00 | 60 | 1005.2 |
| 20260906093413 | 98 | 154 | 6.0 | 10.0 | 0.00 | 0.00 | 0.00 | 60 | 1005.0 |
| 20260906092913 | 97 | 178 | 10.0 | 11.0 | 0.00 | 0.00 | 0.00 | 62 | 1005.0 |
| 20260906092412 | 98 | 142 | 6.0 | 8.0 | 0.00 | 0.00 | 0.00 | 60 | 1005.0 |
| 20260906091908 | 97 | 165 | 2.0 | 10.0 | 0.00 | 0.00 | 0.00 | 62 | 1005.0 |
| 20260906091404 | 97 | 155 | 4.0 | 10.0 | 0.00 | 0.00 | 0.00 | 61 | 1005.1 |
| 20260906090900 | 97 | 143 | 9.0 | 11.0 | 0.00 | 0.00 | 0.00 | 61 | 1005.2 |
| 20260906090359 | 96 | 90 | 1.0 | 13.0 | 0.00 | 0.00 | 0.00 | 63 | 1005.3 |
| 20260906085854 | 96 | 140 | 7.0 | 14.0 | 0.00 | 0.00 | 0.00 | 61 | 1005.3 |
| 20260906085353 | 97 | 180 | 0.0 | 9.0 | 0.00 | 0.00 | 0.00 | 62 | 1005.4 |
| 20260906084848 | 98 | 151 | 4.0 | 9.0 | 0.00 | 0.00 | 0.00 | 60 | 1005.5 |
| 20260906084348 | 97 | 138 | 6.0 | 11.0 | 0.00 | 0.00 | 0.00 | 62 | 1005.4 |
| 20260906083842 | 97 | 151 | 3.0 | 12.0 | 0.00 | 0.00 | 0.00 | 61 | 1005.6 |
| 20260906083338 | 96 | 132 | 11.0 | 12.0 | 0.00 | 0.00 | 0.00 | 62 | 1005.5 |
| 20260906082838 | 97 | 137 | 4.0 | 9.0 | 0.00 | 0.00 | 0.00 | 62 | 1005.6 |
| 20260906082333 | 98 | 147 | 7.0 | 7.0 | 0.00 | 0.00 | 0.00 | 60 | 1005.6 |
| 20260906081829 | 96 | 142 | 2.0 | 11.0 | 0.00 | 0.00 | 0.00 | 63 | 1005.7 |
| 20260906081324 | 96 | 182 | 4.0 | 10.0 | 0.00 | 0.00 | 0.00 | 62 | 1005.8 |
| 20260906080820 | 96 | 175 | 3.0 | 9.0 | 0.00 | 0.00 | 0.00 | 61 | 1005.8 |
| 20260906080316 | 95 | 141 | 6.0 | 9.0 | 0.00 | 0.00 | 0.00 | 63 | 1005.9 |
| 20260906075816 | 95 | 155 | 10.0 | 11.0 | 0.00 | 0.00 | 0.00 | 62 | 1006.0 |
| 20260906075316 | 95 | 139 | 7.0 | 10.0 | 0.00 | 0.00 | 0.00 | 62 | 1005.9 |
| 20260906074811 | 96 | 156 | 5.0 | 8.0 | 0.00 | 0.00 | 0.00 | 62 | 1006.0 |
| 20260906074311 | 95 | 117 | 6.0 | 10.0 | 0.00 | 0.00 | 0.00 | 62 | 1006.0 |
| 20260906073810 | 95 | 149 | 7.0 | 13.0 | 0.00 | 0.00 | 0.00 | 62 | 1006.1 |
| 20260906073305 | 95 | 163 | 5.0 | 10.0 | 0.00 | 0.00 | 0.00 | 63 | 1006.2 |
| 20260906072801 | 95 | 147 | 8.0 | 10.0 | 0.00 | 0.00 | 0.00 | 63 | 1006.3 |
| 20260906072257 | 95 | 135 | 4.0 | 9.0 | 0.00 | 0.00 | 0.00 | 63 | 1006.2 |
| 20260906071752 | 95 | 135 | 3.0 | 8.0 | 0.00 | 0.00 | 0.00 | 64 | 1006.2 |
| 20260906071252 | 96 | 142 | 4.0 | 7.0 | 0.00 | 0.00 | 0.00 | 63 | 1006.2 |
| 20260906032012 | 90 | 195 | 0.0 | 3.0 | 0.00 | 0.00 | 0.00 | 54 | 1005.6 |
| 20260906031508 | 90 | 195 | 0.0 | 3.0 | 0.00 | 0.00 | 0.00 | 54 | 1005.6 |
| 20260906031003 | 90 | 195 | 0.0 | 3.0 | 0.00 | 0.00 | 0.00 | 54 | 1005.6 |
| 20260906030458 | 90 | 240 | 2.0 | 3.0 | 0.00 | 0.00 | 0.00 | 54 | 1005.5 |
| 20260906025957 | 90 | 265 | 2.0 | 4.0 | 0.00 | 0.00 | 0.00 | 54 | 1005.3 |
| 20260906025457 | 89 | 242 | 3.0 | 4.0 | 0.00 | 0.00 | 0.00 | 55 | 1005.4 |
| 20260906024956 | 89 | 300 | 2.0 | 3.0 | 0.00 | 0.00 | 0.00 | 55 | 1005.2 |
| 20260906024456 | 89 | 279 | 0.0 | 2.0 | 0.00 | 0.00 | 0.00 | 55 | 1005.1 |
| 20260906023956 | 90 | 264 | 0.0 | 4.0 | 0.00 | 0.00 | 0.00 | 54 | 1005.3 |
| 20260906023452 | 90 | 250 | 5.0 | 5.0 | 0.00 | 0.00 | 0.00 | 54 | 1005.3 |
| 20260906022947 | 90 | 265 | 2.0 | 4.0 | 0.00 | 0.00 | 0.00 | 54 | 1005.1 |
| 20260906022442 | 90 | 255 | 3.0 | 4.0 | 0.00 | 0.00 | 0.00 | 54 | 1005.0 |
| 20260906021938 | 90 | 282 | 2.0 | 4.0 | 0.00 | 0.00 | 0.00 | 54 | 1004.7 |
| 20260906021438 | 89 | 307 | 3.0 | 4.0 | 0.00 | 0.00 | 0.00 | 54 | 1004.7 |
| 20260906020932 | 89 | 264 | 2.0 | 3.0 | 0.00 | 0.00 | 0.00 | 54 | 1004.9 |
| 20260906020427 | 90 | 295 | 2.0 | 4.0 | 0.00 | 0.00 | 0.00 | 54 | 1004.9 |
| 20260906015921 | 90 | 249 | 1.0 | 5.0 | 0.00 | 0.00 | 0.00 | 53 | 1004.7 |
| 20260906015421 | 90 | 323 | 2.0 | 5.0 | 0.00 | 0.00 | 0.00 | 53 | 1004.7 |
| 20260906014920 | 90 | 254 | 2.0 | 4.0 | 0.00 | 0.00 | 0.00 | 54 | 1004.8 |
| 20260906014419 | 90 | 234 | 4.0 | 4.0 | 0.00 | 0.00 | 0.00 | 53 | 1004.8 |
| 20260906013916 | 90 | 222 | 3.0 | 6.0 | 0.00 | 0.00 | 0.00 | 54 | 1004.6 |
| 20260906013411 | 90 | 258 | 3.0 | 6.0 | 0.00 | 0.00 | 0.00 | 53 | 1004.6 |
| 20260906012907 | 90 | 300 | 1.0 | 6.0 | 0.00 | 0.00 | 0.00 | 54 | 1004.6 |
| 20260906012402 | 89 | 252 | 3.0 | 7.0 | 0.00 | 0.00 | 0.00 | 55 | 1004.7 |
| 20260906011901 | 89 | 290 | 3.0 | 6.0 | 0.00 | 0.00 | 0.00 | 55 | 1004.5 |
| 20260906011356 | 90 | 321 | 3.0 | 6.0 | 0.00 | 0.00 | 0.00 | 55 | 1004.6 |
| 20260906010852 | 90 | 239 | 2.0 | 9.0 | 0.00 | 0.00 | 0.00 | 55 | 1004.6 |
| 20260906010348 | 90 | 278 | 4.0 | 7.0 | 0.00 | 0.00 | 0.00 | 55 | 1004.6 |
| 20260906005843 | 90 | 288 | 3.0 | 8.0 | 0.00 | 0.00 | 0.00 | 55 | 1004.5 |
| 20260906005342 | 90 | 252 | 3.0 | 5.0 | 0.00 | 0.00 | 0.00 | 56 | 1004.4 |
| 20260906004842 | 90 | 285 | 6.0 | 9.0 | 0.00 | 0.00 | 0.00 | 55 | 1004.6 |
| 20260906004341 | 90 | 270 | 2.0 | 6.0 | 0.00 | 0.00 | 0.00 | 56 | 1004.5 |
| 20260906003836 | 90 | 285 | 6.0 | 6.0 | 0.00 | 0.00 | 0.00 | 56 | 1004.5 |
| 20260906003332 | 90 | 280 | 2.0 | 6.0 | 0.00 | 0.00 | 0.00 | 56 | 1004.5 |
| 20260906002827 | 90 | 251 | 4.0 | 6.0 | 0.00 | 0.00 | 0.00 | 55 | 1004.4 |
| 20260906002326 | 91 | 206 | 0.0 | 7.0 | 0.00 | 0.00 | 0.00 | 55 | 1004.3 |
| 20260906001823 | 91 | 253 | 3.0 | 5.0 | 0.00 | 0.00 | 0.00 | 54 | 1004.4 |
| 20260906001318 | 90 | 327 | 3.0 | 7.0 | 0.00 | 0.00 | 0.00 | 54 | 1004.4 |
| 20260906000813 | 91 | 281 | 3.0 | 5.0 | 0.00 | 0.00 | 0.00 | 54 | 1004.4 |
| 20260906000307 | 91 | 266 | 3.0 | 5.0 | 0.00 | 0.00 | 0.00 | 52 | 1004.4 |
| 20260905235802 | 91 | 251 | 3.0 | 4.0 | 0.00 | 0.00 | 0.00 | 53 | 1004.5 |
| 20260905235306 | 91 | 228 | 0.0 | 4.0 | 0.00 | 0.00 | 0.00 | 52 | 1004.4 |
| 20260905234758 | 91 | 243 | 0.0 | 3.0 | 0.00 | 0.00 | 0.00 | 52 | 1004.4 |
| 20260905234253 | 92 | 206 | 2.0 | 4.0 | 0.00 | 0.00 | 0.00 | 50 | 1004.4 |
| 20260905233748 | 91 | 243 | 1.0 | 3.0 | 0.00 | 0.00 | 0.00 | 54 | 1004.5 |
| 20260905233248 | 91 | 221 | 0.0 | 5.0 | 0.00 | 0.00 | 0.00 | 54 | 1004.6 |
| 20260905232747 | 91 | 166 | 1.0 | 5.0 | 0.00 | 0.00 | 0.00 | 56 | 1004.4 |
| 20260905232243 | 91 | 249 | 4.0 | 4.0 | 0.00 | 0.00 | 0.00 | 57 | 1004.3 |
| 20260905231739 | 91 | 240 | 1.0 | 5.0 | 0.00 | 0.00 | 0.00 | 54 | 1004.4 |
| 20260905231234 | 92 | 218 | 3.0 | 6.0 | 0.00 | 0.00 | 0.00 | 53 | 1004.4 |
| 20260905230730 | 92 | 245 | 0.0 | 4.0 | 0.00 | 0.00 | 0.00 | 53 | 1004.5 |
| 20260905230228 | 92 | 241 | 2.0 | 7.0 | 0.00 | 0.00 | 0.00 | 51 | 1004.6 |
| 20260905225727 | 91 | 258 | 3.0 | 4.0 | 0.00 | 0.00 | 0.00 | 53 | 1004.5 |
| 20260905225223 | 91 | 248 | 3.0 | 4.0 | 0.00 | 0.00 | 0.00 | 54 | 1004.4 |
| 20260905224722 | 91 | 266 | 5.0 | 7.0 | 0.00 | 0.00 | 0.00 | 53 | 1004.5 |
| 20260905224217 | 92 | 270 | 2.0 | 3.0 | 0.00 | 0.00 | 0.00 | 51 | 1004.5 |
| 20260905223714 | 93 | 270 | 1.0 | 5.0 | 0.00 | 0.00 | 0.00 | 49 | 1004.5 |
| 20260905223210 | 92 | 247 | 4.0 | 6.0 | 0.00 | 0.00 | 0.00 | 50 | 1004.6 |
| 20260905222706 | 93 | 263 | 1.0 | 5.0 | 0.00 | 0.00 | 0.00 | 49 | 1004.8 |
| 20260905222205 | 94 | 171 | 0.0 | 2.0 | 0.00 | 0.00 | 0.00 | 47 | 1004.6 |
| 20260905221700 | 94 | 214 | 4.0 | 9.0 | 0.00 | 0.00 | 0.00 | 46 | 1004.6 |
| 20260905221158 | 95 | 276 | 2.0 | 6.0 | 0.00 | 0.00 | 0.00 | 46 | 1004.8 |
| 20260905220653 | 94 | 180 | 2.0 | 6.0 | 0.00 | 0.00 | 0.00 | 47 | 1004.9 |
| 20260905220149 | 94 | 243 | 1.0 | 4.0 | 0.00 | 0.00 | 0.00 | 46 | 1004.6 |
| 20260905215648 | 94 | 240 | 0.0 | 8.0 | 0.00 | 0.00 | 0.00 | 46 | 1004.9 |
| 20260905215144 | 94 | 255 | 2.0 | 3.0 | 0.00 | 0.00 | 0.00 | 47 | 1004.7 |
| 20260905214640 | 94 | 240 | 1.0 | 6.0 | 0.00 | 0.00 | 0.00 | 46 | 1004.8 |
| 20260905214135 | 94 | 251 | 2.0 | 3.0 | 0.00 | 0.00 | 0.00 | 46 | 1004.8 |
| 20260905213630 | 95 | 198 | 2.0 | 3.0 | 0.00 | 0.00 | 0.00 | 45 | 1004.9 |
| 20260905213125 | 96 | 254 | 0.0 | 7.0 | 0.00 | 0.00 | 0.00 | 44 | 1005.0 |
| 20260905212621 | 95 | 258 | 4.0 | 4.0 | 0.00 | 0.00 | 0.00 | 44 | 1005.1 |
| 20260905212120 | 96 | 206 | 2.0 | 6.0 | 0.00 | 0.00 | 0.00 | 43 | 1005.1 |
| 20260905211615 | 95 | 282 | 3.0 | 6.0 | 0.00 | 0.00 | 0.00 | 44 | 1005.0 |
| 20260905211111 | 95 | 225 | 2.0 | 3.0 | 0.00 | 0.00 | 0.00 | 44 | 1005.2 |
| 20260905210608 | 94 | 240 | 1.0 | 3.0 | 0.00 | 0.00 | 0.00 | 46 | 1005.1 |
| 20260905210107 | 93 | 135 | 3.0 | 3.0 | 0.00 | 0.00 | 0.00 | 49 | 1005.3 |
| 20260905205606 | 94 | 150 | 0.0 | 4.0 | 0.00 | 0.00 | 0.00 | 49 | 1005.2 |
| 20260905205106 | 94 | 203 | 1.0 | 3.0 | 0.00 | 0.00 | 0.00 | 50 | 1005.1 |
| 20260905204600 | 94 | 153 | 3.0 | 5.0 | 0.00 | 0.00 | 0.00 | 50 | 1005.2 |
| 20260905204056 | 94 | 180 | 2.0 | 4.0 | 0.00 | 0.00 | 0.00 | 50 | 1005.4 |
| 20260905203555 | 94 | 144 | 3.0 | 3.0 | 0.00 | 0.00 | 0.00 | 51 | 1005.3 |
| 20260905203051 | 94 | 177 | 2.0 | 3.0 | 0.00 | 0.00 | 0.00 | 51 | 1005.4 |
| 20260905202546 | 94 | 174 | 0.0 | 3.0 | 0.00 | 0.00 | 0.00 | 51 | 1005.4 |
| 20260905202042 | 94 | 176 | 2.0 | 4.0 | 0.00 | 0.00 | 0.00 | 52 | 1005.6 |
| 20260905201537 | 92 | 165 | 2.0 | 4.0 | 0.00 | 0.00 | 0.00 | 60 | 1005.6 |
| 20260905201036 | 92 | 144 | 3.0 | 4.0 | 0.00 | 0.00 | 0.00 | 64 | 1005.6 |
| 20260905200532 | 91 | 153 | 3.0 | 4.0 | 0.00 | 0.00 | 0.00 | 66 | 1005.6 |
| 20260905200031 | 91 | 176 | 4.0 | 6.0 | 0.00 | 0.00 | 0.00 | 68 | 1005.6 |
| 20260905195526 | 91 | 169 | 5.0 | 5.0 | 0.00 | 0.00 | 0.00 | 69 | 1005.8 |
| 20260905195022 | 91 | 191 | 3.0 | 7.0 | 0.00 | 0.00 | 0.00 | 69 | 1005.9 |
| 20260905194521 | 91 | 162 | 3.0 | 8.0 | 0.00 | 0.00 | 0.00 | 69 | 1005.7 |
| 20260905194021 | 91 | 141 | 4.0 | 6.0 | 0.00 | 0.00 | 0.00 | 68 | 1005.6 |
| 20260905193521 | 91 | 157 | 3.0 | 8.0 | 0.00 | 0.00 | 0.00 | 68 | 1005.8 |
| 20260905193017 | 91 | 171 | 4.0 | 7.0 | 0.00 | 0.00 | 0.00 | 69 | 1005.8 |
| 20260905192512 | 91 | 160 | 6.0 | 7.0 | 0.00 | 0.00 | 0.00 | 69 | 1005.8 |
| 20260905192009 | 91 | 120 | 4.0 | 8.0 | 0.00 | 0.00 | 0.00 | 70 | 1005.7 |
| 20260905191507 | 91 | 157 | 6.0 | 8.0 | 0.00 | 0.00 | 0.00 | 69 | 1005.7 |
| 20260905191006 | 91 | 168 | 9.0 | 9.0 | 0.00 | 0.00 | 0.00 | 71 | 1005.8 |
| 20260905190504 | 91 | 162 | 3.0 | 8.0 | 0.00 | 0.00 | 0.00 | 71 | 1005.9 |
| 20260905190003 | 91 | 179 | 9.0 | 10.0 | 0.00 | 0.00 | 0.00 | 70 | 1005.6 |
| 20260905185458 | 91 | 129 | 4.0 | 9.0 | 0.00 | 0.00 | 0.00 | 70 | 1005.8 |
| 20260905184956 | 91 | 133 | 3.0 | 8.0 | 0.00 | 0.00 | 0.00 | 71 | 1005.9 |
| 20260905184452 | 91 | 116 | 4.0 | 8.0 | 0.00 | 0.00 | 0.00 | 71 | 1005.9 |
| 20260905183950 | 91 | 159 | 5.0 | 11.0 | 0.00 | 0.00 | 0.00 | 74 | 1005.8 |
| 20260905183445 | 91 | 170 | 4.0 | 9.0 | 0.00 | 0.00 | 0.00 | 74 | 1005.9 |
| 20260905182940 | 91 | 157 | 9.0 | 9.0 | 0.00 | 0.00 | 0.00 | 72 | 1005.9 |
| 20260905182439 | 91 | 155 | 4.0 | 8.0 | 0.00 | 0.00 | 0.00 | 73 | 1006.0 |
| 20260905181935 | 91 | 108 | 2.0 | 9.0 | 0.00 | 0.00 | 0.00 | 73 | 1005.9 |
| 20260905181435 | 91 | 176 | 8.0 | 11.0 | 0.00 | 0.00 | 0.00 | 74 | 1005.9 |
| 20260905180934 | 90 | 174 | 4.0 | 8.0 | 0.00 | 0.00 | 0.00 | 77 | 1005.8 |
| 20260905180429 | 91 | 180 | 3.0 | 9.0 | 0.00 | 0.00 | 0.00 | 78 | 1005.8 |
| 20260905175924 | 90 | 180 | 8.0 | 14.0 | 0.00 | 0.00 | 0.00 | 78 | 1005.6 |
| 20260905175423 | 90 | 166 | 9.0 | 15.0 | 0.00 | 0.00 | 0.00 | 78 | 1005.8 |
| 20260905174919 | 90 | 149 | 10.0 | 13.0 | 0.00 | 0.00 | 0.00 | 78 | 1005.8 |
| 20260905174414 | 91 | 137 | 6.0 | 14.0 | 0.00 | 0.00 | 0.00 | 77 | 1005.8 |
| 20260905173910 | 91 | 160 | 6.0 | 13.0 | 0.00 | 0.00 | 0.00 | 78 | 1005.5 |
| 20260905173407 | 91 | 152 | 5.0 | 13.0 | 0.00 | 0.00 | 0.00 | 78 | 1005.6 |
| 20260905172906 | 91 | 67 | 2.0 | 14.0 | 0.00 | 0.00 | 0.00 | 77 | 1005.7 |
| 20260905172404 | 91 | 178 | 7.0 | 13.0 | 0.00 | 0.00 | 0.00 | 77 | 1005.5 |
| 20260905171900 | 91 | 121 | 4.0 | 13.0 | 0.00 | 0.00 | 0.00 | 77 | 1005.8 |
| 20260905171357 | 91 | 165 | 6.0 | 10.0 | 0.00 | 0.00 | 0.00 | 79 | 1005.6 |
| 20260905170853 | 91 | 157 | 9.0 | 11.0 | 0.00 | 0.00 | 0.00 | 79 | 1005.5 |
| 20260905170349 | 91 | 187 | 4.0 | 9.0 | 0.00 | 0.00 | 0.00 | 78 | 1005.4 |
| 20260905165848 | 91 | 134 | 12.0 | 12.0 | 0.00 | 0.00 | 0.00 | 78 | 1005.2 |
| 20260905165343 | 91 | 165 | 5.0 | 13.0 | 0.00 | 0.00 | 0.00 | 79 | 1005.3 |
| 20260905164838 | 91 | 176 | 4.0 | 10.0 | 0.00 | 0.00 | 0.00 | 79 | 1005.2 |
| 20260905164333 | 91 | 134 | 6.0 | 11.0 | 0.00 | 0.00 | 0.00 | 79 | 1005.0 |
| 20260905163828 | 91 | 174 | 8.0 | 12.0 | 0.00 | 0.00 | 0.00 | 78 | 1005.1 |
| 20260905163325 | 91 | 132 | 8.0 | 11.0 | 0.00 | 0.00 | 0.00 | 78 | 1005.0 |
| 20260905162821 | 91 | 175 | 8.0 | 14.0 | 0.00 | 0.00 | 0.00 | 78 | 1004.9 |
| 20260905162320 | 91 | 170 | 10.0 | 13.0 | 0.00 | 0.00 | 0.00 | 78 | 1004.7 |
| 20260905161815 | 91 | 132 | 8.0 | 11.0 | 0.00 | 0.00 | 0.00 | 78 | 1004.7 |
| 20260905161314 | 91 | 177 | 5.0 | 13.0 | 0.00 | 0.00 | 0.00 | 78 | 1004.6 |
| 20260905160812 | 91 | 166 | 7.0 | 14.0 | 0.00 | 0.00 | 0.00 | 78 | 1004.6 |
| 20260905160307 | 91 | 175 | 13.0 | 16.0 | 0.00 | 0.00 | 0.00 | 77 | 1004.6 |
| 20260905155802 | 91 | 141 | 5.0 | 14.0 | 0.00 | 0.00 | 0.00 | 77 | 1004.7 |
| 20260905155301 | 91 | 149 | 0.0 | 16.0 | 0.00 | 0.00 | 0.00 | 77 | 1004.4 |
| 20260905154801 | 91 | 152 | 6.0 | 15.0 | 0.00 | 0.00 | 0.00 | 78 | 1004.4 |
| 20260905154257 | 91 | 150 | 7.0 | 20.0 | 0.00 | 0.00 | 0.00 | 77 | 1004.1 |
| 20260905153752 | 91 | 151 | 14.0 | 18.0 | 0.00 | 0.00 | 0.00 | 77 | 1004.4 |
| 20260905153248 | 91 | 191 | 3.0 | 15.0 | 0.00 | 0.00 | 0.00 | 77 | 1004.2 |
| 20260905152743 | 91 | 181 | 6.0 | 15.0 | 0.00 | 0.00 | 0.00 | 77 | 1004.4 |
| 20260905152242 | 91 | 180 | 11.0 | 16.0 | 0.00 | 0.00 | 0.00 | 77 | 1004.3 |
| 20260905151742 | 91 | 106 | 3.0 | 14.0 | 0.00 | 0.00 | 0.00 | 77 | 1004.0 |
| 20260905151238 | 92 | 171 | 7.0 | 9.0 | 0.00 | 0.00 | 0.00 | 77 | 1004.0 |
| 20260905150737 | 91 | 147 | 6.0 | 16.0 | 0.00 | 0.00 | 0.00 | 76 | 1004.0 |
| 20260905150237 | 92 | 160 | 10.0 | 13.0 | 0.00 | 0.00 | 0.00 | 76 | 1004.0 |
| 20260905145735 | 92 | 161 | 10.0 | 14.0 | 0.00 | 0.00 | 0.00 | 76 | 1004.0 |
| 20260905145230 | 92 | 178 | 8.0 | 14.0 | 0.00 | 0.00 | 0.00 | 76 | 1004.0 |
| 20260905144729 | 92 | 192 | 11.0 | 12.0 | 0.00 | 0.00 | 0.00 | 74 | 1003.7 |
| 20260905144224 | 92 | 148 | 8.0 | 13.0 | 0.00 | 0.00 | 0.00 | 73 | 1004.0 |